SCP
0 0 0 0 0 0 0 0 0 0 0 0 0 0 0 0 0 0 0 0 0 0 0 0 0 0 0 0 0 0 0 0 0 0 0 0 0 0 0 0 0 0 0
0 0 0 0 0 0 0 0 0 0 0 0 0 0 0 0 0 0 0 0 0 0 0 0 0 0 0 0 0 0 0 0 0 0 0 0 0 0 0 0 0 0 0
0 0 0 0 0 0 0 0 0 0 0 0 0 0 0 0 0 0 0 0 0 0 0 0 0 0 0 0 0 0 0 0 0 0 0 0 0 0 0 0 0 0 0
0 0 0 0 0 0 0 0 0 0 0 0 0 0 0 0 0 0 0 0 0 0 0 0 0 0 0 0 0 0 0 0 0 0 0 0 0 0 0 0 0 0 0
0 0 0 0 0 0 0 0 0 0 0 0 0 0 0 0 0 0 0 0 0 0 0 0 0 0 0 0 0 0 0 0 0 0 0 0 0 0 0 0 0 0 0
0 0 0 0 0 0 0 0 0 0 0 0 0 0 0 0 0 0 0 0 0 0 0 0 0 0 0 0 0 0 0 0 0 0 0 0 0 0 0 0 0 0 0
0 0 0 0 0 0 0 0 0 0 0 0 0 0 0 0 0 0 0 0 0 0 0 0 0 0 0 0 0 0 0 0 0 0 0 0 0 0 0 0 0 0 0
0 0 0 0 0 0 0 0 0 0 0 0 0 0 0 0 0 0 0 0 0 0 0 0 0 0 0 0 0 0 0 0 0 0 0 0 0 0 0 0 0 0 0
0 0 0 0 0 0 0 0 0 0 0 0 0 0 0 0 0 0 0 0 0 0 0 0 0 0 0 0 0 0 0 0 0 0 0 0 0 0 0 0 0 0 0
0 0 0 0 0 0 0 0 0 0 0 0 0 0 0 0 0 0 0 0 0 0 0 0 0 0 0 0 0 0 0 0 0 0 0 0 0 0 0 0 0 0 0
0 0 0 0 0 0 0 0 0 0 0 0 0 0 0 0 0 0 0 0 0 0 0 0 0 0 0 0 0 0 0 0 0 0 0 0 0 0 0 0 0 0 0
0 0 0 0 0 0 0 0 0 0 0 0 0 0 0 0 0 0 0 0 0 0 0 0 0 0 0 0 0 0 0 0 0 0 0 0 0 0 0 0 0 0 0
0 0 0 0 0 0 0 0 0 0 0 0 0 0 0 0 0 0 0 0 0 0 0 0 0 0 0 0 0 0 0 0 0 0 0 0 0 0 0 0 0 0 0
0 0 0 0 0 0 0 0 0 0 0 0 0 0 0 0 0 0 0 0 0 0 0 0 0 0 0 0 0 0 0 0 0 0 0 0 0 0 0 0 0 0 0
0 0 0 0 0 0 0 0 0 0 0 0 0 0 0 0 0 0 0 0 0 0 0 0 0 0 0 0 0 0 0 0 0 0 0 0 0 0 0 0 0 0 0
0 0 0 0 0 0 0 0 0 0 0 0 0 0 0 0 0 0 0 0 0 0 0 0 0 0 0 0 0 0 0 0 0 0 0 0 0 0 0 0 0 0 0
0 0 0 0 0 0 0 0 0 0 0 0 0 0 0 0 0 0 0 0 0 0 0 0 0 0 0 0 0 0 0 0 0 0 0 0 0 0 0 0 0 0 0
0 0 0 0 0 0 0 0 0 0 0 0 0 0 0 0 0 0 0 0 0 0 0 0 0 0 0 0 0 0 0 0 0 0 0 0 0 0 0 0 0 0 0
0 0 0 0 0 0 0 0 0 0 0 0 0 0 0 0 0 0 0 0 0 0 0 0 0 0 0 0 0 0 0 0 0 0 0 0 0 0 0 0 0 0 0
0 0 0 0 0 0 0 0 0 0 0 0 0 0 0 0 0 0 0 0 0 0 0 0 0 0 0 0 0 0 0 0 0 0 0 0 0 0 0 0 0 0 0
0 0 0 0 0 0 0 0 0 0 0 0 0 0 0 0 0 0 0 0 0 0 0 0 0 0 0 0 0 0 0 0 0 0 0 0 0 0 0 0 0 0 0
0 0 0 0 0 0 0 0 0 0 0 0 0 0 0 0 0 0 0 0 0 0 0 0 0 0 0 0 0 0 0 0 0 0 0 0 0 -0 0 0 0 0 0
0 0 0 0 0 0 0 0 0 0 0 0 0 0 0 0 0 0 0 0 0 0 0 0 0 0 0 0 0 0 0 0 0 0 0 0 0 -0 -0 0 0 -0 0
0 0 0 0 0 0 0 0 0 0 0 0 0 0 0 0 0 0 0 0 0 0 0 0 0 0 0 0 0 0 0 0 0 0 0 0 0 0 0 0 -0 -0 0
0 0 0 0 0 0 0 0 0 0 0 0 0 0 0 0 0 0 0 0 0 0 0 0 0 0 0 0 0 0 0 0 0 0 0 0 0 0 0 0 0 -0 0
0 0 0 0 0 0 0 0 0 0 0 0 0 0 0 0 0 0 0 0 0 0 0 0 0 0 0 0 0 0 0 0 0 0 0 0 0 0 0 0 0 0 -0
Wind_Speed_500mb
34 28 22 20 15 15 10 5 6 12 12 14 15 12 6 4 9 9 10 19 22 28 26 24 26 26 34 38 35 37 38 40 41 42 43 44 48 46 42 40 38 39 40
34 28 19 19 14 11 10 7 11 9 9 15 7 4 5 7 6 2 7 13 20 24 22 26 29 36 40 44 43 40 37 40 42 43 47 52 49 48 44 45 42 40 40
32 27 21 17 14 14 10 7 6 9 8 7 4 1 5 11 6 4 9 15 23 23 23 29 35 41 45 47 44 43 41 44 45 46 47 49 55 46 45 46 46 47 48
29 23 21 16 14 15 12 7 11 12 9 8 6 11 14 13 6 4 11 19 23 21 26 33 37 43 45 46 44 38 42 44 44 43 43 42 40 44 42 43 43 49 50
28 22 19 17 18 16 13 11 14 16 13 11 15 20 19 13 4 6 12 19 18 20 27 32 37 41 45 44 44 39 44 43 42 38 38 38 40 45 44 46 47 48 50
26 21 22 23 20 18 17 16 18 18 14 13 23 26 19 11 2 5 14 15 16 20 26 32 37 40 44 43 45 43 43 41 40 40 42 47 49 52 53 53 50 53 53
24 23 28 27 23 18 18 20 19 15 15 22 28 25 16 6 3 6 10 13 14 18 23 31 35 39 44 46 47 47 39 42 41 43 47 49 53 53 52 54 56 57 60
25 24 26 28 22 21 19 21 18 15 22 32 29 19 12 4 2 5 7 12 15 17 22 28 34 39 45 49 47 45 39 44 43 46 47 50 51 52 53 54 52 56 60
27 25 26 26 24 22 21 16 14 16 25 35 29 12 5 9 11 9 11 14 15 17 22 26 35 39 45 46 46 46 46 49 48 49 51 51 50 50 51 56 57 58 59
31 27 25 22 23 20 18 16 20 22 22 27 30 30 19 18 13 8 16 12 15 20 21 26 33 44 43 43 44 46 49 51 53 55 54 52 51 50 54 60 59 60 63
34 30 28 25 21 19 18 19 19 20 20 16 19 23 13 10 11 14 10 16 18 23 23 28 35 43 42 43 44 48 49 50 53 52 52 51 52 50 56 65 66 65 66
36 32 29 24 20 19 19 19 18 15 12 14 17 13 9 4 3 1 6 11 15 19 22 26 33 37 41 44 45 44 48 53 50 50 49 50 57 56 56 66 67 68 70
37 32 27 23 23 21 20 18 16 14 15 14 15 13 7 5 6 9 15 18 18 19 18 21 29 33 37 44 47 46 48 50 49 49 48 52 58 58 61 67 71 72 77
32 30 28 26 23 22 22 19 18 19 20 17 15 11 5 7 13 17 20 23 23 18 22 20 26 33 36 43 49 47 46 49 52 51 50 52 58 61 65 70 76 77 79
34 32 30 28 23 24 23 22 21 22 20 17 12 7 4 9 15 20 24 24 23 16 19 26 31 32 33 41 49 52 45 46 54 51 51 52 56 60 62 70 78 77 80
40 34 34 26 28 26 25 25 25 23 18 17 12 4 5 13 18 22 22 22 20 17 15 23 28 33 37 38 48 53 51 41 53 49 51 53 56 58 67 72 78 78 80
41 37 31 32 31 29 29 27 27 23 18 14 10 3 8 15 20 21 19 19 17 16 17 20 26 31 35 41 44 52 49 42 53 51 48 52 58 60 69 76 79 80 83
40 35 37 34 33 34 32 28 26 24 17 10 6 4 12 16 19 18 17 18 17 15 17 22 28 33 36 42 44 54 54 43 50 57 44 48 54 60 68 80 83 81 77
41 42 37 35 39 38 37 31 25 22 17 10 4 7 13 17 20 19 16 15 16 13 16 22 28 31 34 46 53 59 49 50 48 55 54 50 55 58 67 79 86 79 74
45 43 39 39 40 40 37 33 27 21 15 9 4 8 14 18 19 17 14 14 10 13 14 22 29 34 37 43 48 66 61 54 47 53 50 46 52 57 65 75 84 79 77
47 46 48 46 42 38 35 31 28 22 14 6 4 11 16 19 21 19 14 12 11 12 15 23 34 41 47 51 55 52 53 53 52 61 52 51 50 61 64 71 76 80 75
54 51 49 48 44 38 34 31 24 19 13 6 7 13 19 22 23 21 15 14 13 14 19 29 39 42 42 45 51 54 53 52 55 57 49 59 45 54 67 64 70 75 75
55 54 51 46 43 37 36 30 24 19 12 5 6 14 18 20 19 16 17 18 19 17 24 31 36 36 36 41 48 49 47 44 43 55 57 56 55 45 56 60 65 72 75
55 55 52 46 43 38 34 27 24 19 9 3 9 14 17 19 16 10 8 11 15 20 25 29 31 31 35 41 47 39 39 44 42 52 59 60 64 42 53 58 66 68 70
55 54 51 48 42 41 33 28 21 15 9 5 10 15 16 19 17 13 8 7 10 16 23 27 24 23 29 40 42 37 40 46 50 49 61 60 64 51 48 57 60 67 72
57 55 50 45 41 37 33 26 21 14 9 4 8 11 15 16 19 14 13 14 15 20 21 19 18 25 34 39 37 37 36 39 43 34 52 58 61 65 40 54 52 60 70
Wind_Direction_500mb
174 171 175 184 190 198 206 217 284 309 313 313 310 323 333 67 71 55 35 20 9 355 3 9 15 14 6 4 356 354 349 351 347 346 341 348 345 345 347 344 339 334 328
183 182 181 188 187 203 215 248 295 294 304 306 339 42 87 104 92 69 39 24 1 4 6 12 9 6 1 2 358 354 351 352 345 347 344 338 345 342 345 342 342 338 328
186 191 193 195 219 229 228 272 286 266 282 298 299 112 142 138 126 61 20 1 357 356 5 4 2 360 360 1 360 357 357 344 349 352 340 332 333 341 345 346 340 336 328
192 194 197 207 227 221 236 261 263 251 264 255 231 185 168 152 134 30 353 346 344 353 358 356 359 358 2 3 360 3 353 349 347 337 328 324 335 341 340 341 339 339 332
197 196 205 225 223 232 239 265 255 266 267 245 200 174 168 163 163 344 334 328 342 355 356 353 355 359 1 360 0 358 352 351 350 352 346 346 344 343 340 339 338 335 335
198 210 218 231 227 232 248 266 263 268 260 224 183 172 170 164 160 319 316 333 345 351 352 350 352 358 358 357 360 358 351 351 349 348 344 344 345 340 334 332 329 328 325
210 226 234 230 222 233 255 268 273 261 203 191 177 163 157 163 240 305 309 326 336 346 350 347 347 352 354 354 355 352 349 350 346 345 343 347 343 337 334 330 329 325 322
222 233 226 218 227 249 254 271 264 215 196 180 181 173 160 143 227 286 303 317 325 338 344 337 345 348 351 350 352 351 352 351 349 346 343 344 342 341 337 335 332 328 325
223 227 223 229 242 248 265 248 220 213 195 190 201 202 184 230 218 249 279 305 312 324 327 340 346 346 350 352 356 357 357 353 349 350 347 348 344 345 343 340 337 334 331
219 224 225 235 238 252 240 229 200 203 213 212 208 224 250 270 222 244 262 287 299 306 324 344 345 352 354 357 355 354 352 347 347 348 347 349 347 345 344 344 342 337 333
217 219 227 237 243 234 229 218 201 188 188 197 210 228 221 210 234 253 263 272 282 293 315 342 348 352 358 357 352 355 351 347 345 344 347 350 350 348 344 344 339 336 333
220 223 227 231 227 227 221 202 190 188 172 163 167 166 152 182 148 276 282 307 287 277 306 338 349 356 0 359 354 352 352 348 346 346 348 346 345 346 344 340 340 339 336
218 220 221 219 218 219 207 196 180 158 144 158 144 130 116 73 30 12 349 335 328 313 303 324 350 2 1 358 355 356 350 350 351 350 347 349 347 347 348 344 347 348 347
218 212 215 212 216 204 192 186 168 150 147 147 138 129 93 19 12 357 349 335 342 332 316 339 359 3 1 1 358 352 348 351 353 353 354 350 348 349 351 352 355 354 355
207 210 209 204 206 194 184 175 161 157 152 146 140 141 56 1 356 352 342 338 346 338 326 348 356 4 4 5 3 360 353 356 357 359 358 353 351 353 356 358 359 360 357
203 207 201 201 196 187 175 172 163 156 152 149 148 137 28 351 349 348 339 338 343 346 326 345 359 4 8 8 8 3 4 360 2 4 1 355 356 0 3 5 4 3 360
201 199 200 201 191 180 167 170 166 153 151 151 139 40 7 348 349 348 347 339 345 342 332 359 4 8 7 5 4 5 5 4 8 9 360 359 1 4 7 11 8 7 6
197 199 197 191 182 176 167 169 160 148 149 148 119 24 355 351 354 350 351 335 343 332 348 360 1 5 3 2 2 7 4 8 11 12 11 6 8 11 10 11 11 9 12
192 192 192 187 183 172 167 162 163 152 154 150 103 8 357 2 2 349 348 342 352 342 354 356 357 358 1 3 0 2 7 11 14 13 9 9 10 15 17 14 15 12 14
192 193 187 183 180 173 165 165 159 154 151 140 78 6 3 8 4 351 338 353 353 351 11 1 3 4 6 6 3 3 9 12 12 16 16 17 14 19 18 17 16 17 17
192 192 183 177 177 177 164 164 156 151 150 131 29 10 7 2 6 358 351 4 5 26 9 9 9 11 11 11 7 8 8 11 18 13 20 26 21 26 23 19 14 21 19
186 186 180 179 177 175 160 159 155 151 146 123 20 13 7 3 6 4 19 30 23 20 14 8 8 13 12 6 2 5 7 9 12 11 14 24 23 20 19 20 14 18 24
184 179 177 178 177 172 163 163 154 148 150 114 32 20 13 9 7 3 18 11 17 20 11 7 12 11 9 1 352 358 9 12 10 13 18 20 24 25 22 25 22 17 20
179 175 175 177 174 175 171 164 158 145 156 123 39 24 19 19 15 30 20 343 357 1 7 17 13 8 2 352 351 357 358 6 21 24 15 15 15 30 30 28 27 24 24
175 174 174 175 174 178 172 169 159 155 167 79 34 27 24 27 32 48 41 16 5 17 19 17 9 1 355 353 354 6 11 10 18 19 22 20 15 17 29 27 27 25 24
174 174 172 175 181 183 172 168 164 167 166 67 37 23 23 34 35 34 48 46 49 40 33 21 13 2 3 1 4 14 18 17 18 23 17 19 18 17 14 25 25 24 24
Wind_Speed_850mb
34 28 22 20 15 15 10 5 6 12 12 14 15 12 6 4 9 9 10 19 22 28 26 24 26 26 34 38 35 37 38 40 41 42 43 44 48 46 42 40 38 39 40
34 28 19 19 14 11 10 7 11 9 9 15 7 4 5 7 6 2 7 13 20 24 22 26 29 36 40 44 43 40 37 40 42 43 47 52 49 48 44 45 42 40 40
32 27 21 17 14 14 10 7 6 9 8 7 4 1 5 11 6 4 9 15 23 23 23 29 35 41 45 47 44 43 41 44 45 46 47 49 55 46 45 46 46 47 48
29 23 21 16 14 15 12 7 11 12 9 8 6 11 14 13 6 4 11 19 23 21 26 33 37 43 45 46 44 38 42 44 44 43 43 42 40 44 42 43 43 49 50
28 22 19 17 18 16 13 11 14 16 13 11 15 20 19 13 4 6 12 19 18 20 27 32 37 41 45 44 44 39 44 43 42 38 38 38 40 45 44 46 47 48 50
26 21 22 23 20 18 17 16 18 18 14 13 23 26 19 11 2 5 14 15 16 20 26 32 37 40 44 43 45 43 43 41 40 40 42 47 49 52 53 53 50 53 53
24 23 28 27 23 18 18 20 19 15 15 22 28 25 16 6 3 6 10 13 14 18 23 31 35 39 44 46 47 47 39 42 41 43 47 49 53 53 52 54 56 57 60
25 24 26 28 22 21 19 21 18 15 22 32 29 19 12 4 2 5 7 12 15 17 22 28 34 39 45 49 47 45 39 44 43 46 47 50 51 52 53 54 52 56 60
27 25 26 26 24 22 21 16 14 16 25 35 29 12 5 9 11 9 11 14 15 17 22 26 35 39 45 46 46 46 46 49 48 49 51 51 50 50 51 56 57 58 59
31 27 25 22 23 20 18 16 20 22 22 27 30 30 19 18 13 8 16 12 15 20 21 26 33 44 43 43 44 46 49 51 53 55 54 52 51 50 54 60 59 60 63
34 30 28 25 21 19 18 19 19 20 20 16 19 23 13 10 11 14 10 16 18 23 23 28 35 43 42 43 44 48 49 50 53 52 52 51 52 50 56 65 66 65 66
36 32 29 24 20 19 19 19 18 15 12 14 17 13 9 4 3 1 6 11 15 19 22 26 33 37 41 44 45 44 48 53 50 50 49 50 57 56 56 66 67 68 70
37 32 27 23 23 21 20 18 16 14 15 14 15 13 7 5 6 9 15 18 18 19 18 21 29 33 37 44 47 46 48 50 49 49 48 52 58 58 61 67 71 72 77
32 30 28 26 23 22 22 19 18 19 20 17 15 11 5 7 13 17 20 23 23 18 22 20 26 33 36 43 49 47 46 49 52 51 50 52 58 61 65 70 76 77 79
34 32 30 28 23 24 23 22 21 22 20 17 12 7 4 9 15 20 24 24 23 16 19 26 31 32 33 41 49 52 45 46 54 51 51 52 56 60 62 70 78 77 80
40 34 34 26 28 26 25 25 25 23 18 17 12 4 5 13 18 22 22 22 20 17 15 23 28 33 37 38 48 53 51 41 53 49 51 53 56 58 67 72 78 78 80
41 37 31 32 31 29 29 27 27 23 18 14 10 3 8 15 20 21 19 19 17 16 17 20 26 31 35 41 44 52 49 42 53 51 48 52 58 60 69 76 79 80 83
40 35 37 34 33 34 32 28 26 24 17 10 6 4 12 16 19 18 17 18 17 15 17 22 28 33 36 42 44 54 54 43 50 57 44 48 54 60 68 80 83 81 77
41 42 37 35 39 38 37 31 25 22 17 10 4 7 13 17 20 19 16 15 16 13 16 22 28 31 34 46 53 59 49 50 48 55 54 50 55 58 67 79 86 79 74
45 43 39 39 40 40 37 33 27 21 15 9 4 8 14 18 19 17 14 14 10 13 14 22 29 34 37 43 48 66 61 54 47 53 50 46 52 57 65 75 84 79 77
47 46 48 46 42 38 35 31 28 22 14 6 4 11 16 19 21 19 14 12 11 12 15 23 34 41 47 51 55 52 53 53 52 61 52 51 50 61 64 71 76 80 75
54 51 49 48 44 38 34 31 24 19 13 6 7 13 19 22 23 21 15 14 13 14 19 29 39 42 42 45 51 54 53 52 55 57 49 59 45 54 67 64 70 75 75
55 54 51 46 43 37 36 30 24 19 12 5 6 14 18 20 19 16 17 18 19 17 24 31 36 36 36 41 48 49 47 44 43 55 57 56 55 45 56 60 65 72 75
55 55 52 46 43 38 34 27 24 19 9 3 9 14 17 19 16 10 8 11 15 20 25 29 31 31 35 41 47 39 39 44 42 52 59 60 64 42 53 58 66 68 70
55 54 51 48 42 41 33 28 21 15 9 5 10 15 16 19 17 13 8 7 10 16 23 27 24 23 29 40 42 37 40 46 50 49 61 60 64 51 48 57 60 67 72
57 55 50 45 41 37 33 26 21 14 9 4 8 11 15 16 19 14 13 14 15 20 21 19 18 25 34 39 37 37 36 39 43 34 52 58 61 65 40 54 52 60 70
Wind_Direction_850mb
174 171 175 184 190 198 206 217 284 309 313 313 310 323 333 67 71 55 35 20 9 355 3 9 15 14 6 4 356 354 349 351 347 346 341 348 345 345 347 344 339 334 328
183 182 181 188 187 203 215 248 295 294 304 306 339 42 87 104 92 69 39 24 1 4 6 12 9 6 1 2 358 354 351 352 345 347 344 338 345 342 345 342 342 338 328
186 191 193 195 219 229 228 272 286 266 282 298 299 112 142 138 126 61 20 1 357 356 5 4 2 360 360 1 360 357 357 344 349 352 340 332 333 341 345 346 340 336 328
192 194 197 207 227 221 236 261 263 251 264 255 231 185 168 152 134 30 353 346 344 353 358 356 359 358 2 3 360 3 353 349 347 337 328 324 335 341 340 341 339 339 332
197 196 205 225 223 232 239 265 255 266 267 245 200 174 168 163 163 344 334 328 342 355 356 353 355 359 1 360 0 358 352 351 350 352 346 346 344 343 340 339 338 335 335
198 210 218 231 227 232 248 266 263 268 260 224 183 172 170 164 160 319 316 333 345 351 352 350 352 358 358 357 360 358 351 351 349 348 344 344 345 340 334 332 329 328 325
210 226 234 230 222 233 255 268 273 261 203 191 177 163 157 163 240 305 309 326 336 346 350 347 347 352 354 354 355 352 349 350 346 345 343 347 343 337 334 330 329 325 322
222 233 226 218 227 249 254 271 264 215 196 180 181 173 160 143 227 286 303 317 325 338 344 337 345 348 351 350 352 351 352 351 349 346 343 344 342 341 337 335 332 328 325
223 227 223 229 242 248 265 248 220 213 195 190 201 202 184 230 218 249 279 305 312 324 327 340 346 346 350 352 356 357 357 353 349 350 347 348 344 345 343 340 337 334 331
219 224 225 235 238 252 240 229 200 203 213 212 208 224 250 270 222 244 262 287 299 306 324 344 345 352 354 357 355 354 352 347 347 348 347 349 347 345 344 344 342 337 333
217 219 227 237 243 234 229 218 201 188 188 197 210 228 221 210 234 253 263 272 282 293 315 342 348 352 358 357 352 355 351 347 345 344 347 350 350 348 344 344 339 336 333
220 223 227 231 227 227 221 202 190 188 172 163 167 166 152 182 148 276 282 307 287 277 306 338 349 356 0 359 354 352 352 348 346 346 348 346 345 346 344 340 340 339 336
218 220 221 219 218 219 207 196 180 158 144 158 144 130 116 73 30 12 349 335 328 313 303 324 350 2 1 358 355 356 350 350 351 350 347 349 347 347 348 344 347 348 347
218 212 215 212 216 204 192 186 168 150 147 147 138 129 93 19 12 357 349 335 342 332 316 339 359 3 1 1 358 352 348 351 353 353 354 350 348 349 351 352 355 354 355
207 210 209 204 206 194 184 175 161 157 152 146 140 141 56 1 356 352 342 338 346 338 326 348 356 4 4 5 3 360 353 356 357 359 358 353 351 353 356 358 359 360 357
203 207 201 201 196 187 175 172 163 156 152 149 148 137 28 351 349 348 339 338 343 346 326 345 359 4 8 8 8 3 4 360 2 4 1 355 356 0 3 5 4 3 360
201 199 200 201 191 180 167 170 166 153 151 151 139 40 7 348 349 348 347 339 345 342 332 359 4 8 7 5 4 5 5 4 8 9 360 359 1 4 7 11 8 7 6
197 199 197 191 182 176 167 169 160 148 149 148 119 24 355 351 354 350 351 335 343 332 348 360 1 5 3 2 2 7 4 8 11 12 11 6 8 11 10 11 11 9 12
192 192 192 187 183 172 167 162 163 152 154 150 103 8 357 2 2 349 348 342 352 342 354 356 357 358 1 3 0 2 7 11 14 13 9 9 10 15 17 14 15 12 14
192 193 187 183 180 173 165 165 159 154 151 140 78 6 3 8 4 351 338 353 353 351 11 1 3 4 6 6 3 3 9 12 12 16 16 17 14 19 18 17 16 17 17
192 192 183 177 177 177 164 164 156 151 150 131 29 10 7 2 6 358 351 4 5 26 9 9 9 11 11 11 7 8 8 11 18 13 20 26 21 26 23 19 14 21 19
186 186 180 179 177 175 160 159 155 151 146 123 20 13 7 3 6 4 19 30 23 20 14 8 8 13 12 6 2 5 7 9 12 11 14 24 23 20 19 20 14 18 24
184 179 177 178 177 172 163 163 154 148 150 114 32 20 13 9 7 3 18 11 17 20 11 7 12 11 9 1 352 358 9 12 10 13 18 20 24 25 22 25 22 17 20
179 175 175 177 174 175 171 164 158 145 156 123 39 24 19 19 15 30 20 343 357 1 7 17 13 8 2 352 351 357 358 6 21 24 15 15 15 30 30 28 27 24 24
175 174 174 175 174 178 172 169 159 155 167 79 34 27 24 27 32 48 41 16 5 17 19 17 9 1 355 353 354 6 11 10 18 19 22 20 15 17 29 27 27 25 24
174 174 172 175 181 183 172 168 164 167 166 67 37 23 23 34 35 34 48 46 49 40 33 21 13 2 3 1 4 14 18 17 18 23 17 19 18 17 14 25 25 24 24